LEMUR-2-SUSURRUS (46502 NORAD) Tracking and Keplerian Element Data

This shows tracking and keplerian element data for the satellite.

Feedback or suggestion? Click here.




ElementValue
Catalog46502
NameLEMUR-2-SUSURRUS
Epoch Orbit477
Epoch Day304.78903252
Epoch Year2020
RAAN237.9157
Inclination97.6664
Eccentricity0.0012166
Argument of Perigee137.1608
Mean Anonmoly223.0566
Mean Motion15.02078159
Decay Rate8.54E-06
L11 46502U 20068S 20304.78903252 .00000854 00000-0 69525-4 0 9996
L22 46502 97.6664 237.9157 0012166 137.1608 223.0566 15.02078159 4773

Live tracking and technical data element details for LEMUR-2-SUSURRUS (NORAD 46502). LEMUR-2-SUSURRUS can be tracked NOW for your location showing map with azimuth and elevation plus other details from your city location.

Track the satellite on the map from your city or location and see movement details for azimuth, elevation, latitude, longitude, range, height, and movement on the map or in text.







IsCatalogInMostPopularTable: catalog: 46502, numindb: 6
Update: records affected: 1



GetName: 46502 LEMUR-2-SUSURRUS

Hit Count: updated at: Sat, 31 Oct 2020 09:40:26 GMT